F6BIJ-13 Weather Reports


Display with metric or nautical units.
time (UTC)temp
F
wind
direction
speed
MPH
gust
MPH
rain 1hr
in
rain 24hr
in
rain mn
in
humidity
%
barometer
mb
20260506174836 53 135 0.0 1.0 0.00 0.00 0.22 89 1011.4
20260506174237 54 90 0.0 1.0 0.00 0.00 0.22 89 1011.3
20260506173637 54 180 0.0 0.0 0.00 0.00 0.22 88 1011.2
20260506173037 53 180 0.0 1.0 0.00 0.00 0.22 88 1011.1
20260506172437 54 90 0.0 0.0 0.00 0.00 0.22 87 1011.0
20260506171836 55 45 0.0 0.0 0.00 0.00 0.22 87 1011.0
20260506171237 55 135 0.0 1.0 0.00 0.00 0.22 86 1010.9
20260506170637 56 45 0.0 0.0 0.00 0.00 0.22 86 1010.8
20260506170037 56 270 0.0 0.0 0.00 0.00 0.22 85 1010.8
20260506165437 56 135 0.0 0.0 0.00 0.00 0.22 85 1011.0
20260506164836 56 180 0.0 0.0 0.00 0.00 0.22 83 1011.0
20260506164237 56 90 0.0 0.0 0.00 0.00 0.22 83 1011.0
20260506163637 56 135 0.0 0.0 0.00 0.00 0.22 79 1011.0
20260506163037 57 315 0.0 0.0 0.00 0.00 0.22 78 1011.0
20260506162437 57 45 0.0 0.0 0.00 0.00 0.22 78 1011.2
20260506161837 57 0 0.0 0.0 0.00 0.00 0.22 79 1011.2
20260506161237 58 315 0.0 0.0 0.00 0.00 0.22 74 1011.1
20260506160637 57 315 0.0 1.0 0.00 0.00 0.22 73 1011.0
20260506160037 58 180 0.0 1.0 0.00 0.00 0.22 74 1011.3
20260506155436 58 0 0.0 0.0 0.00 0.00 0.22 73 1011.2
20260506154836 58 45 0.0 0.0 0.00 0.00 0.22 71 1011.2
20260506154237 58 45 0.0 2.0 0.00 0.00 0.22 73 1011.2
20260506153637 58 90 0.0 0.0 0.00 0.00 0.22 71 1011.2
20260506153037 59 180 0.0 1.0 0.00 0.00 0.22 73 1011.4
20260506152437 58 0 0.0 1.0 0.00 0.00 0.22 72 1011.5
20260506151837 59 180 1.0 1.0 0.00 0.00 0.22 74 1011.4
20260506151237 58 315 0.0 1.0 0.00 0.00 0.22 71 1011.5
20260506150637 59 315 0.0 0.0 0.00 0.00 0.22 67 1011.6
20260506150037 59 315 2.0 3.0 0.00 0.00 0.22 64 1011.6
20260506145437 59 45 1.0 2.0 0.00 0.00 0.22 68 1011.6
20260506144836 60 0 0.0 0.0 0.00 0.00 0.22 71 1011.5
20260506144237 60 0 0.0 0.0 0.00 0.00 0.22 69 1011.6
20260506143637 60 315 0.0 1.0 0.00 0.00 0.22 73 1011.7
20260506143037 60 180 0.0 0.0 0.00 0.00 0.22 71 1011.7
20260506142437 59 135 0.0 1.0 0.00 0.00 0.22 66 1011.8
20260506141836 59 225 0.0 0.0 0.00 0.00 0.22 71 1011.8
20260506141237 59 90 0.0 0.0 0.00 0.00 0.22 70 1011.9
20260506140637 59 0 1.0 1.0 0.00 0.00 0.22 68 1011.9
20260506140037 59 90 1.0 4.0 0.00 0.00 0.22 74 1012.0
20260506135436 58 0 1.0 2.0 0.00 0.00 0.22 66 1012.0
20260506134836 59 315 1.0 2.0 0.00 0.00 0.22 71 1012.0
20260506134237 60 180 0.0 1.0 0.00 0.00 0.22 65 1012.0
20260506133637 61 0 0.0 1.0 0.00 0.00 0.22 66 1012.0
20260506133037 61 180 0.0 2.0 0.00 0.00 0.22 66 1012.1
20260506132437 59 0 1.0 1.0 0.00 0.00 0.22 69 1012.2
20260506131837 59 0 1.0 2.0 0.00 0.00 0.22 69 1012.2
20260506131237 62 315 0.0 1.0 0.00 0.00 0.22 65 1012.3
20260506130637 62 180 0.0 1.0 0.00 0.00 0.22 69 1012.2
20260506130037 60 315 2.0 3.0 0.00 0.00 0.22 65 1012.4
20260506125437 58 0 2.0 3.0 0.00 0.00 0.22 70 1012.4
20260506124836 58 315 2.0 6.0 0.00 0.00 0.22 71 1012.4
20260506124237 58 0 1.0 1.0 0.00 0.00 0.22 74 1012.4
20260506123637 59 45 0.0 0.0 0.00 0.00 0.22 74 1012.5
20260506123037 58 0 1.0 1.0 0.00 0.00 0.22 79 1012.4
20260506122437 56 135 0.0 0.0 0.00 0.00 0.22 71 1012.4
20260506121838 56 0 2.0 2.0 0.00 0.00 0.22 74 1012.5
20260506121237 56 45 1.0 2.0 0.00 0.00 0.22 76 1012.5
20260506120637 56 135 1.0 2.0 0.00 0.00 0.22 75 1012.6
20260506120037 56 90 0.0 1.0 0.00 0.00 0.22 78 1012.5
20260506115436 58 90 0.0 2.0 0.00 0.00 0.22 86 1012.6
20260506114836 57 135 1.0 2.0 0.00 0.00 0.22 89 1012.6
20260506114237 56 180 1.0 2.0 0.00 0.00 0.22 94 1012.6
20260506113637 54 135 0.0 1.0 0.00 0.00 0.22 94 1012.6
20260506113037 53 135 1.0 2.0 0.00 0.04 0.22 94 1012.6
20260506112436 52 135 1.0 2.0 0.00 0.06 0.22 94 1012.7
20260506111837 51 180 0.0 1.0 0.00 0.07 0.21 93 1012.8
20260506111237 51 90 0.0 0.0 0.00 0.09 0.21 92 1012.7
20260506110637 51 45 0.0 0.0 0.00 0.08 0.20 90 1012.7
20260506110037 52 135 1.0 1.0 0.00 0.04 0.19 88 1012.6
20260506105436 51 180 0.0 0.0 0.00 0.04 0.19 88 1012.6
20260506100637 53 135 2.0 3.0 0.00 0.00 0.18 93 1012.2
20260506093637 52 315 0.0 1.0 0.00 0.00 0.17 94 1011.8
20260506092437 53 315 0.0 0.0 0.00 0.06 0.17 95 1011.4
20260506091837 53 225 2.0 3.0 0.00 0.09 0.17 94 1011.1
20260506091237 53 180 1.0 2.0 0.00 0.10 0.16 94 1010.9
20260506090637 53 180 1.0 1.0 0.00 0.07 0.15 95 1010.9
20260506085437 52 315 0.0 2.0 0.00 0.00 0.14 96 1010.8
20260506084836 53 0 2.0 4.0 0.00 0.00 0.14 96 1010.7
20260506080637 53 180 0.0 0.0 0.00 0.04 0.14 97 1010.4
20260506073037 53 225 0.0 0.0 0.00 0.11 0.11 98 1010.1
20260506072437 52 180 0.0 0.0 0.00 0.13 0.11 98 1010.1
20260506071836 52 180 0.0 0.0 0.00 0.11 0.09 98 1010.1
20260506071237 51 180 0.0 0.0 0.00 0.10 0.09 98 1009.8
20260506070637 52 180 0.0 0.0 0.00 0.10 0.08 98 1009.7
20260506062437 53 225 0.0 0.0 0.00 0.13 0.04 97 1009.3
20260506051237 51 180 0.0 0.0 0.00 0.08 0.33 97 1008.8
20260506050637 50 180 0.0 0.0 0.00 0.09 0.32 97 1008.8
20260506044837 51 180 0.0 0.0 0.00 0.06 0.31 97 1008.7
20260506044237 52 180 0.0 0.0 0.00 0.08 0.30 97 1008.6
20260506043637 52 180 0.0 0.0 0.00 0.11 0.30 97 1008.6
20260506043037 51 180 0.0 0.0 0.00 0.13 0.30 97 1008.6
20260506042437 50 180 0.0 0.0 0.00 0.12 0.28 97 1008.8
20260506041837 50 180 0.0 0.0 0.00 0.10 0.28 97 1008.7
20260506041237 51 180 0.0 0.0 0.00 0.07 0.26 97 1008.7
20260506040637 51 180 0.0 0.0 0.00 0.04 0.26 97 1008.8
20260506031236 50 180 0.0 0.0 0.00 0.00 0.24 97 1008.9
20260506030637 50 180 0.0 0.0 0.00 0.00 0.24 97 1008.9
20260506030037 50 180 0.0 0.0 0.00 0.00 0.24 96 1008.8
20260506025437 50 180 0.0 0.0 0.00 0.00 0.24 96 1008.8
20260506024837 50 180 0.0 0.0 0.00 0.00 0.24 96 1008.9
20260506024237 50 180 0.0 0.0 0.00 0.00 0.24 97 1008.8
20260506023637 50 180 0.0 0.0 0.00 0.00 0.24 96 1008.9
20260506023037 50 180 0.0 0.0 0.00 0.00 0.24 97 1009.1
20260506022437 50 225 0.0 0.0 0.00 0.00 0.24 97 1008.9
20260506021837 50 180 0.0 0.0 0.00 0.00 0.24 97 1009.0
20260506021236 50 180 0.0 0.0 0.00 0.00 0.24 97 1009.0
20260506020637 50 180 0.0 0.0 0.00 0.00 0.24 96 1009.1
20260506020037 50 180 0.0 0.0 0.00 0.00 0.24 97 1009.2
20260506015437 50 180 0.0 0.0 0.00 0.00 0.24 97 1009.3
20260506014836 50 180 0.0 0.0 0.00 0.00 0.24 96 1009.4
20260506014237 50 180 0.0 1.0 0.00 0.00 0.24 97 1009.4
20260506013037 50 225 0.0 0.0 0.00 0.00 0.24 97 1009.4
20260506012437 50 180 0.0 0.0 0.00 0.00 0.24 96 1009.7
20260506011836 50 180 0.0 0.0 0.00 0.00 0.24 96 1009.8
20260506011236 50 135 0.0 0.0 0.00 0.00 0.24 96 1009.8
20260506010640 51 180 0.0 0.0 0.00 0.00 0.24 96 1009.9
20260506010037 50 135 0.0 0.0 0.00 0.00 0.24 96 1009.8
20260506005437 50 180 0.0 0.0 0.00 0.00 0.24 96 1010.0
20260506004836 50 180 0.0 0.0 0.00 0.00 0.24 96 1010.0
20260506004237 50 135 0.0 0.0 0.00 0.00 0.24 95 1010.2
20260506003637 50 180 0.0 0.0 0.00 0.00 0.24 95 1010.3
20260506003037 51 180 0.0 0.0 0.00 0.00 0.24 95 1010.3
20260506002437 50 180 0.0 0.0 0.00 0.00 0.24 95 1010.4
20260506001837 51 135 0.0 0.0 0.00 0.00 0.24 95 1010.6
20260506001236 51 135 0.0 0.0 0.00 0.00 0.24 95 1010.5
20260506000637 51 180 0.0 0.0 0.00 0.00 0.24 96 1010.7
20260506000037 51 180 0.0 0.0 0.00 0.00 0.24 95 1010.8
20260505235437 51 0 0.0 0.0 0.00 0.00 0.24 95 1010.9
20260505234836 51 135 0.0 0.0 0.00 0.00 0.24 95 1011.0
20260505234237 51 180 0.0 0.0 0.00 0.00 0.24 95 1011.0
20260505233637 52 225 0.0 0.0 0.00 0.00 0.24 95 1011.2
20260505233037 52 180 0.0 0.0 0.00 0.00 0.24 95 1011.3
20260505232437 52 225 0.0 0.0 0.00 0.00 0.24 95 1011.2
20260505230637 52 135 0.0 0.0 0.00 0.00 0.24 94 1011.7
20260505223637 52 225 0.0 0.0 0.00 0.00 0.24 94 1011.6
20260505223037 52 45 0.0 1.0 0.00 0.00 0.24 94 1011.6
20260505222437 52 0 0.0 0.0 0.00 0.00 0.24 94 1011.6
20260505221837 52 225 0.0 1.0 0.00 0.00 0.24 94 1011.6
20260505221237 51 180 0.0 1.0 0.00 0.00 0.24 93 1011.8
20260505220637 51 180 0.0 1.0 0.00 0.00 0.24 93 1012.0
20260505220037 52 180 0.0 1.0 0.00 0.00 0.24 94 1012.1
20260505215437 53 180 1.0 1.0 0.00 0.06 0.24 94 1012.3
20260505214837 52 180 0.0 1.0 0.00 0.09 0.24 93 1012.2
20260505214237 53 0 0.0 2.0 0.00 0.09 0.23 94 1012.3
20260505213637 53 0 0.0 1.0 0.00 0.06 0.22 94 1012.6
20260505212437 52 315 0.0 1.0 0.00 0.00 0.21 95 1012.5
20260505211837 53 180 0.0 0.0 0.00 0.00 0.21 94 1012.5
20260505211236 53 180 0.0 0.0 0.00 0.00 0.21 94 1012.4
20260505210637 53 0 0.0 0.0 0.00 0.00 0.21 94 1012.3
20260505210037 53 225 0.0 1.0 0.00 0.00 0.21 94 1012.2
20260505205437 53 180 0.0 0.0 0.00 0.00 0.21 94 1012.4
20260505204836 53 225 0.0 1.0 0.00 0.00 0.21 93 1012.3
20260505204237 53 180 0.0 0.0 0.00 0.00 0.21 93 1012.3
20260505203637 53 135 0.0 0.0 0.00 0.00 0.21 93 1012.3
20260505203037 53 315 0.0 1.0 0.00 0.00 0.21 93 1012.4
20260505202437 53 180 0.0 0.0 0.00 0.00 0.21 92 1012.2
20260505201837 54 0 0.0 0.0 0.00 0.00 0.21 91 1012.2
20260505201237 54 135 0.0 0.0 0.00 0.04 0.21 91 1012.3
20260505200637 54 0 0.0 0.0 0.00 0.06 0.21 89 1012.2
20260505200037 54 180 0.0 0.0 0.00 0.08 0.21 88 1012.2
20260505195437 55 90 1.0 3.0 0.00 0.05 0.20 86 1012.1
20260505194237 54 180 1.0 2.0 0.00 0.04 0.19 88 1011.9
20260505192437 55 0 0.0 0.0 0.00 0.00 0.18 86 1011.5
20260505191836 55 0 0.0 0.0 0.00 0.00 0.18 86 1011.4
20260505191236 55 90 0.0 0.0 0.00 0.00 0.18 85 1011.2
20260505190637 56 180 0.0 0.0 0.00 0.00 0.18 83 1011.2
20260505190040 56 0 0.0 1.0 0.00 0.00 0.18 81 1010.9
20260505185437 56 135 1.0 1.0 0.00 0.00 0.18 79 1010.9
20260505184836 56 225 1.0 2.0 0.00 0.00 0.18 79 1010.9
20260505184236 57 270 0.0 1.0 0.00 0.00 0.18 79 1011.0
20260505183637 58 225 2.0 4.0 0.00 0.00 0.18 79 1010.9
20260505183037 58 315 1.0 1.0 0.00 0.00 0.18 79 1010.8
20260505182436 58 135 0.0 0.0 0.00 0.00 0.18 81 1010.8
20260505181836 59 180 0.0 0.0 0.00 0.00 0.18 80 1010.7
20260505181237 58 135 0.0 0.0 0.00 0.00 0.18 79 1010.6
20260505180037 60 180 1.0 4.0 0.00 0.00 0.18 78 1010.2
20260505175437 61 0 0.0 1.0 0.00 0.00 0.18 76 1010.2